カタログに戻る

DELTA 1 DEB

運用中SSO
NORAD 7065·DEBRIS·🇺🇸 United States

打ち上げ Nov 6, 1973 から Vandenberg Space Force Base

Loading…

次のパス (今後24時間)

TLE

最新Source: Space-Track

元期: Sep 12, 2026, 09:25 UTC

1 07065U 73086BH  26255.39281583  .00000268  00000-0  25010-2 0  9997
2 07065 101.8700 224.6493 0044643 280.5530 234.7286 12.34388950374763

AllMySatでDELTA 1 DEBをリアルタイム追跡

Download on the App Store